Location: Erlenbrunn
(49.1717°N, 7.6142°E)
Time: 10:05:49
(UTC+00:00)

Cosmos 1602 - Pass Details

Date: 25 November 2020
Orbit: 512 x 534 km, 82.5° (Epoch: 25 January)

Event Time Altitude Azimuth Distance (km) Brightness Sun altitude
Rises 17:17:33 0° 356° (N) 2,698 7.2 -15.8°
Reaches altitude 10° 17:19:51 10° 6° (N) 1,800 6.2 -16.2°
Maximum altitude 17:23:31 36° 74° (ENE) 855 4.2 -16.8°
Enters shadow 17:23:50 36° 85° (E) 864 4.3 -16.8°
